Jorge Medina

Scout - Aldosivi
10 Sep 2028
Sonntag
Verarbeitung

Persönlichkeit

Anpassungsfähigkeit (19) Ehrgeiz (11) Kontroverse (8) Loyalität (15) Druck (4) Professionalität (7) Fairness (12) Temperament (8)

Profil

Trainerstil Demokratisch
Lizenz Kontinentale A
Entschlossenheit 11
Menschenführung 11
Motivation 5
Disziplin 8
Arbeitszufriedenheit
100%
Ermüdung
0%
Rolle Scout
Gehalt 74.7K p/W
Vertrag 14.03.2030

Leistung

Verhalten Gut
Trainingseffektivität
31%
Spielerentwicklung
60%
Verletzungsprävention
50%
Taktische Umsetzung
30%

Letzte Ereignisse

Nahm an einer Scouting-Besprechung teil 7T her
Nahm an einer Scouting-Besprechung teil 14T her
Nahm an einer Scouting-Besprechung teil 21T her
Nahm an einer Scouting-Besprechung teil 28T her
Nahm an einer Scouting-Besprechung teil 35T her
Nahm an einer Scouting-Besprechung teil 42T her
Nahm an einer Scouting-Besprechung teil 49T her
Nahm an einer Scouting-Besprechung teil 56T her

Aktuell beobachtet

100
Spieler Verein Status Fähigkeit Vertrauen Beobachtet Zuletzt beobachtet Letzte Stimme
Pontus Almqvist Parma Aktiv 113 / 133 40% 3 29.05.2027 -
Adrián Bernabé Parma Aktiv 123 / 145 40% 4 26.05.2027 -
Mehdi Dorval Catanzaro Aktiv 114 / 132 40% 3 25.05.2027 -
Mitchel Bakker Modena Aktiv 121 / 124 40% 3 23.05.2027 -
Odilon Kossounou Atalanta Aktiv 130 / 147 40% 2 22.05.2027 -
Gianluca Frabotta Cesena Aktiv 136 / 118 40% 1 22.05.2027 -
Ilyas Ansah Hull City Aktiv 144 / 131 40% 3 21.05.2027 -
Stefano Di Mario Virtus Entella Aktiv 116 / 125 40% 2 21.05.2027 -
Giorgi Kvernadze Frosinone Aktiv 144 / 122 40% 1 20.05.2027 -
Nicolò Zaniolo Udinese Aktiv 126 / 147 40% 1 18.05.2027 -
Ilario Monterisi Frosinone Aktiv 129 / 136 40% 2 14.05.2027 -
Jordan Zemura Udinese Aktiv 138 / 148 40% 1 14.05.2027 -
Nicolò Cambiaghi Bologna Aktiv 133 / 125 40% 3 11.05.2027 -
Mikael Egill Ellertsson Genoa Aktiv 150 / 139 40% 1 09.05.2027 -
Raoul Bellanova Atalanta Aktiv 168 / 138 40% 4 08.05.2027 -
Niccolò Pierozzi Palermo Aktiv 137 / 121 40% 1 07.05.2027 -
Danilo Veiga Lecce Aktiv 113 / 138 40% 1 07.05.2027 -
Hannibal Burnley Aktiv 138 / 123 40% 1 02.05.2027 -
Lucas Da Cunha Como Aktiv 140 / 135 40% 1 30.04.2027 -
Stiven Shpendi Empoli Aktiv 137 / 113 40% 1 29.04.2027 -
Christian Kouan Benevento Aktiv 103 / 102 40% 1 26.04.2027 -
Marco Pompetti Padova Aktiv 138 / 138 40% 1 25.04.2027 -
Billy Gilmour Napoli Aktiv 129 / 133 40% 1 22.04.2027 -
Gianluca Busio Venezia Aktiv 136 / 143 40% 2 19.04.2027 -
Bjorn Meijer Sampdoria Aktiv 143 / 119 40% 2 17.04.2027 -
Camillo Tavernelli Arezzo Aktiv 120 / 128 40% 1 11.04.2027 -
Giacomo Raspadori Atalanta Aktiv 144 / 154 40% 4 10.04.2027 -
Alessandro Buongiorno Cagliari Aktiv 152 / 146 40% 2 02.04.2027 -
Matteo Lovato Padova Aktiv 138 / 140 40% 1 30.03.2027 -
Harry Clarke Preston Aktiv 131 / 128 40% 2 27.03.2027 -
Terry Devlin Portsmouth Aktiv 105 / 111 40% 1 27.03.2027 -
Mohamed-Ali Cho Hull City Aktiv 143 / 135 40% 2 21.03.2027 -
Florentino Luís Ipswich Town Aktiv 132 / 146 40% 2 20.03.2027 -
Brooke Norton-Cuffy Hull City Aktiv 155 / 144 40% 5 13.03.2027 -
Trevoh Chalobah Como Aktiv 139 / 140 40% 1 13.03.2027 -
Xavier Simons Bolton Wanderers Aktiv 137 / 121 40% 1 12.03.2027 -
Jacob Greaves Ipswich Town Aktiv 133 / 147 40% 1 11.03.2027 -
Nicolás Arévalo Metalist Aktiv 120 / 132 40% 2 10.03.2027 -
Michael Baidoo Plymouth Argyle Aktiv 113 / 138 40% 1 10.03.2027 -
Kristoffer Lund Birmingham Aktiv 124 / 125 40% 1 09.03.2027 -
Pelle Mattsson Norwich City Aktiv 111 / 119 40% 1 08.03.2027 -
Japhet Tanganga Sheffield United Aktiv 116 / 131 40% 1 08.03.2027 -
Toby Collyer West Bromwich Albion Aktiv 133 / 133 40% 2 06.03.2027 -
Jack Rudoni Coventry City Aktiv 129 / 119 40% 2 05.03.2027 -
Bobby Clark Derby County Aktiv 137 / 115 40% 1 03.03.2027 -
Lewis Bate Stockport County Aktiv 103 / 113 40% 1 28.02.2027 -
Ronnie Edwards Queens Park Rangers Aktiv 120 / 122 40% 1 25.02.2027 -
Jayden Bogle Leeds United Aktiv 148 / 145 40% 1 24.02.2027 -
Petar Stanić Ludogorets Aktiv 123 / 123 40% 1 22.02.2027 -
Adam Randell Bristol City Aktiv 115 / 136 40% 3 21.02.2027 -
Jack Currie Oxford United Aktiv 112 / 119 40% 1 14.02.2027 -
Habib Diarra Sunderland Aktiv 128 / 150 40% 2 13.02.2027 -
Max Bird Birmingham Aktiv 137 / 143 40% 1 08.02.2027 -
Luke McNally Bristol City Aktiv 125 / 130 40% 1 08.02.2027 -
Max Arfsten Middlesbrough Aktiv 127 / 119 40% 1 07.02.2027 -
Alfie Doughty Millwall Aktiv 118 / 122 40% 2 06.02.2027 -
Teden Mengi Luton Town Aktiv 143 / 135 40% 1 06.02.2027 -
Daniel Kyerewaa Reading Aktiv 107 / 100 40% 1 05.02.2027 -
Dara O'Shea Ipswich Town Aktiv 125 / 127 40% 1 03.02.2027 -
Welington Southampton Aktiv 114 / 138 40% 2 02.02.2027 -
Jacques Ekomié Wrexham Aktiv 113 / 136 40% 1 02.02.2027 -
Peter Federico Gornik Zabrze Aktiv 135 / 131 40% 1 29.11.2026 -
Derensili Sanches Fernandes Huddersfield Town Aktiv 126 / 125 40% 1 29.11.2026 -
Santiago Montiel Independiente Aktiv 138 / 137 40% 1 28.11.2026 -
Sorba Thomas Stoke City Aktiv 140 / 136 40% 1 27.11.2026 -
Thomas Carrique Andorra Aktiv 119 / 109 40% 1 25.11.2026 -
Ethan Pye Stockport County Aktiv 103 / 113 40% 1 25.11.2026 -
Gastón Benedetti Estudiantes Aktiv 137 / 121 40% 2 22.11.2026 -
Jaminton Campaz Rosario Central Aktiv 125 / 118 40% 1 20.11.2026 -
Bosun Lawal Stoke City Aktiv 142 / 112 40% 1 20.11.2026 -
Justin Devenny Stoke City Aktiv 125 / 126 40% 1 19.11.2026 -
Danil Glebov Dinamo Moscow Aktiv 109 / 114 40% 1 18.11.2026 -
Ramiro Ruiz Rodríguez Atlético Tucumán Aktiv 118 / 125 40% 1 18.11.2026 -
Justo Giani Umraniyespor Aktiv 126 / 104 40% 3 17.11.2026 -
Jack McGlynn Stoke City Aktiv 132 / 128 40% 2 17.11.2026 -
Reda Khadra Qarabag Aktiv 141 / 124 40% 1 15.11.2026 -
Bradley Zwane SuperSport United Aktiv 118 / 107 40% 1 13.11.2026 -
Tyrese Campbell Sheffield United Aktiv 128 / 109 40% 2 11.11.2026 -
Milan van Ewijk Coventry City Aktiv 128 / 139 40% 1 08.11.2026 -
Ali Ahmed Norwich City Aktiv 136 / 118 40% 1 05.11.2026 -
Talles Magno New York City Aktiv 121 / 137 40% 1 05.11.2026 -
Gonzalo Ríos Independiente Rivadavia Aktiv 109 / 111 40% 2 04.11.2026 -
Leandro Lozano Boca Juniors Aktiv 133 / 130 40% 1 03.11.2026 -
Manu Morlanes Mallorca Aktiv 155 / 152 40% 3 01.11.2026 -
Iván Tapia Barracas Central Aktiv 132 / 126 40% 1 01.11.2026 -
Alex Luna Instituto Aktiv 127 / 129 40% 1 30.10.2026 -
Toti Wolverhampton Aktiv 132 / 118 40% 1 29.10.2026 -
Martín Ortega Newell's Old Boys Aktiv 115 / 124 40% 1 29.10.2026 -
Aidan Morris Middlesbrough Aktiv 115 / 120 40% 1 27.10.2026 -
Alex Vigo Independiente Rivadavia Aktiv 108 / 113 40% 1 25.10.2026 -
Damián Fernández Defensa y Justicia Aktiv 129 / 120 40% 1 24.10.2026 -
Anel Ahmedhodžić Burnley Aktiv 134 / 118 40% 1 21.10.2026 -
Emiliano Álvarez Progreso Aktiv 124 / 131 40% 1 17.10.2026 -
Juan Cruz de los Santos Nacional Aktiv 118 / 124 40% 1 15.10.2026 -
Alan Lescano Argentinos Juniors Aktiv 127 / 124 40% 1 12.10.2026 -
Esteban Obregón Montevideo City Torque Aktiv 110 / 111 40% 1 11.10.2026 -
Santiago Toloza O'Higgins Aktiv 112 / 128 40% 1 08.10.2026 -
Andrés Montaño Cruz Azul Aktiv 104 / 129 40% 1 08.10.2026 -
Kevin Castañeda Guadalajara Aktiv 129 / 103 40% 1 05.10.2026 -
Brian Gutiérrez Guadalajara Aktiv 146 / 113 40% 1 05.10.2026 -